Skip Page Navigation
NASA JPL Caltech
NASA Logo - Jet Propulsion Laboratory + View the NASA Portal
+ Center for Near-Earth Object Studies
JPL Home Earth Solar System Stars & Galaxies Technology
JPL Solar System Dynamics
BODIES ORBITS EPHEMERIDES TOOLS PHYSICAL DATA DISCOVERY FAQ SITE MAP
JPL Small-Body Database Browser
Search: [ help ]  
359875 (2011 WE13)
Classification: Main-belt Asteroid          SPK-ID: 2359875
Ephemeris | Orbit Diagram | Orbital Elements | Mission Design | Physical Parameters | Discovery Circumstances | Close-Approach Data ]

[ show orbit diagram ]
Orbital Elements at Epoch 2459000.5 (2020-May-31.0) TDB
Reference: JPL 8 (heliocentric ecliptic J2000)
 Element Value Uncertainty (1-sigma)   Units 
e .176493677011775 1.4601e-07  
a 2.965529785807421 5.4156e-08 au
q 2.442132529622327 4.1177e-07 au
i 11.74481522449942 7.6134e-06 deg
node 68.00017992074318 5.3566e-05 deg
peri 109.6828210053227 5.6991e-05 deg
M 140.6879476681713 2.3994e-05 deg
tp 2458271.535706433813
(2018-Jun-02.03570643)
0.00011708 TDB
period 1865.313625178412
5.11
5.1096e-05
1.399e-07
d
yr
n .1929970355336717 5.2867e-09 deg/d
Q 3.488927041992515 6.3714e-08 au
  Orbit Determination Parameters
   # obs. used (total)      92  
   data-arc span      5044 days (13.81 yr)  
   first obs. used      2006-11-27  
   last obs. used      2020-09-18  
   planetary ephem.      DE431  
   SB-pert. ephem.      SB431-N16  
   condition code      0  
   norm. resid. RMS      .74588  
   source      ORB  
   producer      Otto Matic  
   solution date      2020-Nov-11 16:20:55  

Additional Information
 Earth MOID = 1.47494 au 
 Jupiter MOID = 1.608 au 
 T_jup = 3.210 
[ show covariance matrix ]

Ephemeris | Orbit Diagram | Orbital Elements | Mission Design | Physical Parameters | Discovery Circumstances | Close-Approach Data ]

Physical Parameter Table
Parameter Symbol Value Units Sigma Reference Notes
absolute magnitude H 16.6   n/a MPO264892  

359875 (2011 WE13)          Discovered 2006-Nov-27 by Spacewatch at Kitt Peak
Reference: 20130327/Numbers.arcLast Updated: 2013-03-29

[ hide close-approach data ]
Close-Approach Data   ...sorted by Date/Time (TDB)
Date/Time (TDB) Time Uncertainty
(days_HH:MM)
Body Nominal Distance (au) Minimum Distance (au) Maximum Distance (au) V-relative (km/s) V-infinity (km/s) JD (TDB) Time Uncertainty (minutes) Semi-major axis (km) Semi-minor axis (km) range-LOV angle (deg) N-sigma BP Orbit Ref. Reference Modified
1902-Jul-01 19:25 00:12 Jupiter 1.9128032316066 1.9127969765169 1.91280948670956 2.39206885487467 2.19917226385581 2415932.308911091 12.2443838956139 558.030137432876 49.8954663263288 83.1288091623717 617797.870697777 T 8 CATAB v2.0f-lin.ifort 2020-Nov-11 16:20:55 2020-Nov-11 16:20
1938-Sep-09 00:18 00:09 Jupiter 1.7761874933155 1.77618402045239 1.77619096643809 1.28273893786669 0.831664407402908 2429150.512489197 9.06731025094127 3749.74548173535 419.065315469937 28.5496399731771 537971.051575294 T 8 CATAB v2.0f-lin.ifort 2020-Nov-11 16:20:55 2020-Nov-11 16:20
1974-Oct-31 15:52 00:05 Jupiter 1.67344108609477 1.67343971084291 1.67344246150074 1.08055817297454 0.394073144439035 2442352.161387643 4.63902333033105 17300.6695190167 2003.41701965083 -1.91830875706689 263720.238567923 T 8 CATAB v2.0f-lin.ifort 2020-Nov-11 16:20:55 2020-Nov-11 16:20
2010-Nov-17 09:23 < 00:01 Jupiter 1.61478948534042 1.61478810387586 1.61479086686436 1.65660565194794 1.30202198395888 2455517.890967795 0.818676647920508 878.550217545346 327.199359650579 -80.3000916428871 484266.898694735 T 8 CATAB v2.0f-lin.ifort 2020-Nov-11 16:20:55 2020-Nov-11 16:20
2046-Nov-13 22:12 00:03 Jupiter 1.6043304344315 1.60432910058689 1.60433176830484 2.22487939852818 1.97336465565234 2468663.425335752 2.81022876332223 526.666844768251 86.1882374431302 -79.5226941434204 744173.215301507 T 8 CATAB v2.0f-lin.ifort 2020-Nov-11 16:20:55 2020-Nov-11 16:20
2082-Nov-15 07:11 00:06 Jupiter 1.63622760442236 1.63622596763248 1.63622924128349 2.75033391816814 2.55519096189751 2481813.799639668 6.33868777583752 642.44580265969 45.2279086908474 -87.7303496707541 745573.649217405 T 8 CATAB v2.0f-lin.ifort 2020-Nov-11 16:20:55 2020-Nov-11 16:20
2118-Dec-06 04:57 00:10 Jupiter 1.73767008817319 1.73766459794916 1.73767557877829 3.26734055000792 3.11458179509005 2494982.706066039 10.2961896240153 1358.81887959931 25.5014229152211 -80.7761321680645 1094381.27086848 T 8 CATAB v2.0f-lin.ifort 2020-Nov-11 16:20:55 2020-Nov-11 16:20
2155-Jan-19 13:09 00:14 Jupiter 1.93045294135281 1.93044247300749 1.9304634101532 3.85389371503882 3.73830966771223 2508176.048056644 13.6571821129816 1595.57442183048 38.2170116176185 -72.6813390033843 1327817.95576898 T 8 CATAB v2.0f-lin.ifort 2020-Nov-11 16:20:55 2020-Nov-11 16:20
2163-Jun-22 17:20 00:16 Jupiter 1.98999126003044 1.98998209212109 1.99000042795212 2.50662698227288 2.33064286820425 2511252.222520416 15.5344654366196 680.2332852181 48.9807408447956 -89.7348763238191 705639.229563247 T 8 CATAB v2.0f-lin.ifort 2020-Nov-11 16:20:55 2020-Nov-11 16:20
2199-Sep-12 04:28 00:19 Jupiter 1.81488001350125 1.81487020513067 1.81488982520826 1.36121783008527 0.958902565453896 2524482.686251929 18.6363258432773 6386.05278840002 321.448367138637 53.0610533504447 767504.646283398 T 8 CATAB v2.0f-lin.ifort 2020-Nov-11 16:20:55 2020-Nov-11 16:20
Ephemeris | Orbit Diagram | Orbital Elements | Mission Design | Physical Parameters | Discovery Circumstances | Close-Approach Data ]
ABOUT SSD CREDITS/AWARDS PRIVACY/COPYRIGHT GLOSSARY LINKS
FirstGov 2021-Jan-26 21:58 UT
(server date/time)  
NASA Home Page
Site Manager:   Ryan S. Park
Webmaster  Alan B. Chamberlin